sat.trackr.live / text

‹ back to catalog

COSMOS 2496 (RODNIK-S *)

NORAD 39761 · 2014-028A

PAYLOAD ACTIVE UNKNOWN

§ Identity

Operator
Country
CIS
Launch date
2014-05-23
Launch site
PLMSC
Launch vehicle
Mass (kg)
RCS (m²)
1.69

External: N2YO · Heavens-Above · Gunter

§ Orbital elements

Epoch: 2026-05-25T05:48:37.937664Z

Period
115.86 min
Inclination
82.4430°
Eccentricity
0.0020897
Mean motion
12.42877656 rev/d
Perigee alt
1,478.0 km
Apogee alt
1,510.9 km
Semi-major
7,872.6 km
B*
2.0427e-4
RAAN
123.1028°
Arg perigee
126.4855°
Mean anomaly
233.8153°
Rev number
54,466

§ Raw data

COSMOS 2496 (RODNIK-S *)1 39761U 14028A   26145.24210576  .00000038  00000+0  20427-3 0  99942 39761  82.4430 123.1028 0020897 126.4855 233.8153 12.42877656544661

JSON: /api/v1/satellites/39761 · /tle

For live sub-satellite position, see the globe view (requires WebGL).

§ Visibility from observer

Set your observer location to see the next 7 days of passes ≥ 10°. The values pass through the URL so the page stays shareable.

No JS? Fill the form by hand. The geolocation button needs JavaScript.

§ Radio — SatNOGS DB

ModeDescriptionDownlinkUplink
FM UHF Unknown 387.175 MHz
FM UHF Unknown 388.187 MHz
UHF Unknown 388.687 MHz

3 transmitters · refreshed weekly from db.satnogs.org